When you browse on this site, cookies collect data to enhance your experience and personalize the content and advertising you see.
Visit our Privacy Policy to learn more. By continuing to use the site, you agree to this use of cookies and data.
  • en Suisse
  • Liste des pays
  • À 7 jours
  • Température de l'eau
  • Carte satellitaire
  • Carte météo
  • Widgets météo
  • user-avatar
    Se connecter

    Météo par heure à Townsville

    Ce jour, 19 Juin, Mercredi

    Heure Température Précipitation Vent Pression Humidité
    00:00 +17°C° 0 mm 2 m/s 756 mmHg 82%
    01:00 +17°C° 0 mm 2 m/s 756 mmHg 82%
    02:00 +16°C° 0 mm 2 m/s 756 mmHg 82%
    03:00 +16°C° 0 mm 3 m/s 756 mmHg 82%
    04:00 +15°C° 0 mm 2 m/s 756 mmHg 83%
    05:00 +15°C° 0 mm 2 m/s 756 mmHg 83%
    06:00 +15°C° 0 mm 2 m/s 756 mmHg 84%
    07:00 +15°C° 0 mm 2 m/s 756 mmHg 84%
    08:00 +17°C° 0 mm 2 m/s 756 mmHg 72%
    09:00 +19°C° 0 mm 2 m/s 757 mmHg 59%
    10:00 +23°C° 0 mm 2 m/s 757 mmHg 47%
    11:00 +24°C° 0 mm 3 m/s 756 mmHg 44%
    12:00 +25°C° 0 mm 3 m/s 756 mmHg 40%
    13:00 +25°C° 0 mm 3 m/s 755 mmHg 37%
    14:00 +25°C° 0 mm 3 m/s 755 mmHg 40%
    15:00 +24°C° 0 mm 3 m/s 755 mmHg 42%
    16:00 +24°C° 0 mm 3 m/s 754 mmHg 44%
    17:00 +21°C° 0 mm 3 m/s 755 mmHg 52%
    18:00 +19°C° 0 mm 2 m/s 755 mmHg 59%
    19:00 +17°C° 0 mm 2 m/s 756 mmHg 67%
    20:00 +17°C° 0 mm 2 m/s 756 mmHg 69%
    21:00 +16°C° 0 mm 3 m/s 756 mmHg 71%
    22:00 +16°C° 0 mm 3 m/s 757 mmHg 73%
    23:00 +16°C° 0 mm 3 m/s 756 mmHg 74%

    Demain, 20 Juin, Jeudi

    Heure Température Précipitation Vent Pression Humidité
    00:00 +14°C° 0 mm 3 m/s 756 mmHg 76%
    01:00 +14°C° 0 mm 3 m/s 756 mmHg 78%
    02:00 +14°C° 0 mm 3 m/s 756 mmHg 78%
    03:00 +14°C° 0 mm 2 m/s 756 mmHg 79%
    04:00 +14°C° 0 mm 2 m/s 755 mmHg 80%
    05:00 +14°C° 0 mm 2 m/s 756 mmHg 79%
    06:00 +14°C° 0 mm 2 m/s 756 mmHg 79%
    07:00 +14°C° 0 mm 2 m/s 756 mmHg 78%
    08:00 +16°C° 0 mm 2 m/s 757 mmHg 69%
    09:00 +18°C° 0 mm 2 m/s 757 mmHg 60%
    10:00 +20°C° 0 mm 2 m/s 757 mmHg 51%
    11:00 +21°C° 0 mm 2 m/s 756 mmHg 47%
    12:00 +22°C° 0 mm 3 m/s 756 mmHg 44%
    13:00 +24°C° 0 mm 3 m/s 755 mmHg 40%
    14:00 +24°C° 0 mm 3 m/s 755 mmHg 42%
    15:00 +24°C° 0 mm 3 m/s 755 mmHg 44%
    16:00 +24°C° 0 mm 3 m/s 755 mmHg 45%
    17:00 +21°C° 0 mm 2 m/s 755 mmHg 53%
    18:00 +19°C° 0 mm 2 m/s 756 mmHg 60%
    19:00 +18°C° 0 mm 1 m/s 756 mmHg 68%
    20:00 +16°C° 0 mm 1 m/s 756 mmHg 67%
    21:00 +16°C° 0 mm 2 m/s 757 mmHg 67%
    22:00 +16°C° 0 mm 2 m/s 757 mmHg 66%
    23:00 +15°C° 0 mm 2 m/s 757 mmHg 65%

    Après-demain, 21 Juin, Vendredi

    Heure Température Précipitation Vent Pression Humidité
    00:00 +15°C° 0 mm 2 m/s 757 mmHg 63%
    01:00 +15°C° 0 mm 2 m/s 756 mmHg 62%
    02:00 +14°C° 0 mm 2 m/s 756 mmHg 63%
    03:00 +14°C° 0 mm 2 m/s 756 mmHg 64%
    04:00 +14°C° 0 mm 2 m/s 756 mmHg 65%
    05:00 +14°C° 0 mm 2 m/s 756 mmHg 66%
    06:00 +12°C° 0 mm 3 m/s 756 mmHg 68%
    07:00 +12°C° 0 mm 3 m/s 756 mmHg 69%
    08:00 +16°C° 0 mm 3 m/s 757 mmHg 62%
    09:00 +18°C° 0 mm 3 m/s 757 mmHg 56%
    10:00 +21°C° 0 mm 3 m/s 757 mmHg 49%
    11:00 +23°C° 0 mm 2 m/s 756 mmHg 45%
    12:00 +24°C° 0 mm 2 m/s 756 mmHg 41%
    13:00 +25°C° 0 mm 2 m/s 755 mmHg 36%
    14:00 +25°C° 0 mm 2 m/s 755 mmHg 38%
    15:00 +25°C° 0 mm 2 m/s 755 mmHg 39%
    16:00 +25°C° 0 mm 2 m/s 755 mmHg 40%
    17:00 +23°C° 0 mm 2 m/s 755 mmHg 45%
    18:00 +20°C° 0 mm 2 m/s 755 mmHg 49%
    19:00 +18°C° 0 mm 2 m/s 756 mmHg 54%
    20:00 +17°C° 0 mm 2 m/s 756 mmHg 56%
    21:00 +17°C° 0 mm 3 m/s 756 mmHg 58%
    22:00 +16°C° 0 mm 3 m/s 757 mmHg 60%
    23:00 +14°C° 0 mm 3 m/s 757 mmHg 61%

    22 Juin, Samedi

    Heure Température Précipitation Vent Pression Humidité
    00:00 +14°C° 0 mm 3 m/s 756 mmHg 62%
    01:00 +13°C° 0 mm 4 m/s 756 mmHg 63%
    02:00 +13°C° 0 mm 4 m/s 756 mmHg 64%
    03:00 +13°C° 0 mm 3 m/s 756 mmHg 66%
    04:00 +13°C° 0 mm 3 m/s 756 mmHg 67%
    05:00 +12°C° 0 mm 3 m/s 756 mmHg 68%
    06:00 +12°C° 0 mm 3 m/s 756 mmHg 69%
    07:00 +12°C° 0 mm 3 m/s 757 mmHg 70%
    08:00 +14°C° 0 mm 3 m/s 757 mmHg 62%
    09:00 +17°C° 0 mm 3 m/s 757 mmHg 54%
    10:00 +19°C° 0 mm 3 m/s 757 mmHg 46%
    11:00 +21°C° 0 mm 2 m/s 756 mmHg 47%
    12:00 +23°C° 0 mm 2 m/s 755 mmHg 45%
    13:00 +25°C° 0 mm 2 m/s 755 mmHg 42%
    14:00 +24°C° 0 mm 2 m/s 755 mmHg 44%
    15:00 +24°C° 0 mm 3 m/s 754 mmHg 45%
    16:00 +24°C° 0 mm 3 m/s 754 mmHg 46%
    17:00 +21°C° 0 mm 3 m/s 755 mmHg 55%
    18:00 +19°C° 0 mm 3 m/s 755 mmHg 63%
    19:00 +17°C° 0 mm 2 m/s 756 mmHg 72%
    20:00 +17°C° 0 mm 2 m/s 756 mmHg 69%
    21:00 +16°C° 0 mm 3 m/s 756 mmHg 67%
    22:00 +16°C° 0 mm 3 m/s 757 mmHg 64%
    23:00 +14°C° 0 mm 3 m/s 756 mmHg 60%

    23 Juin, Dimanche

    Heure Température Précipitation Vent Pression Humidité
    00:00 +14°C° 0 mm 3 m/s 756 mmHg 57%
    01:00 +13°C° 0 mm 3 m/s 756 mmHg 53%
    02:00 +13°C° 0 mm 3 m/s 756 mmHg 53%
    03:00 +13°C° 0 mm 3 m/s 756 mmHg 53%
    04:00 +12°C° 0 mm 3 m/s 755 mmHg 53%
    05:00 +12°C° 0 mm 3 m/s 756 mmHg 56%
    06:00 +12°C° 0 mm 3 m/s 756 mmHg 58%
    07:00 +12°C° 0 mm 3 m/s 756 mmHg 60%
    08:00 +14°C° 0 mm 3 m/s 757 mmHg 57%
    09:00 +18°C° 0 mm 3 m/s 757 mmHg 53%
    10:00 +21°C° 0 mm 3 m/s 757 mmHg 50%
    11:00 +22°C° 0 mm 3 m/s 756 mmHg 49%
    12:00 +24°C° 0 mm 2 m/s 755 mmHg 47%
    13:00 +26°C° 0 mm 2 m/s 755 mmHg 46%
    14:00 +25°C° 0 mm 3 m/s 755 mmHg 48%
    15:00 +25°C° 0 mm 3 m/s 754 mmHg 50%
    16:00 +25°C° 0 mm 3 m/s 754 mmHg 52%
    17:00 +22°C° 0 mm 3 m/s 755 mmHg 63%
    18:00 +20°C° 0 mm 3 m/s 755 mmHg 74%
    19:00 +18°C° 0 mm 3 m/s 756 mmHg 85%
    20:00 +18°C° 0.1 mm 3 m/s 756 mmHg 86%
    21:00 +18°C° 0.1 mm 4 m/s 756 mmHg 87%
    22:00 +17°C° 0.1 mm 4 m/s 757 mmHg 87%
    23:00 +17°C° 0.1 mm 4 m/s 756 mmHg 88%

    24 Juin, Lundi

    Heure Température Précipitation Vent Pression Humidité
    00:00 +17°C° 0.1 mm 4 m/s 756 mmHg 89%
    01:00 +16°C° 0.1 mm 3 m/s 756 mmHg 89%
    02:00 +16°C° 0 mm 3 m/s 756 mmHg 90%
    03:00 +16°C° 0 mm 3 m/s 756 mmHg 91%
    04:00 +16°C° 0 mm 3 m/s 756 mmHg 92%
    05:00 +16°C° 0 mm 3 m/s 756 mmHg 92%
    06:00 +16°C° 0 mm 3 m/s 757 mmHg 92%
    07:00 +16°C° 0 mm 3 m/s 757 mmHg 92%
    08:00 +18°C° 0 mm 3 m/s 757 mmHg 81%
    09:00 +20°C° 0 mm 3 m/s 758 mmHg 70%
    10:00 +22°C° 0 mm 3 m/s 758 mmHg 60%
    11:00 +23°C° 0 mm 4 m/s 757 mmHg 56%
    12:00 +25°C° 0 mm 4 m/s 757 mmHg 52%
    13:00 +26°C° 0 mm 4 m/s 756 mmHg 48%
    14:00 +25°C° 0 mm 4 m/s 756 mmHg 51%
    15:00 +25°C° 0 mm 4 m/s 756 mmHg 54%
    16:00 +25°C° 0 mm 4 m/s 756 mmHg 57%
    17:00 +22°C° 0 mm 4 m/s 756 mmHg 66%
    18:00 +20°C° 0 mm 4 m/s 757 mmHg 75%
    19:00 +19°C° 0 mm 4 m/s 757 mmHg 84%
    20:00 +18°C° 0 mm 4 m/s 758 mmHg 84%
    21:00 +18°C° 0 mm 4 m/s 758 mmHg 84%
    22:00 +18°C° 0 mm 4 m/s 758 mmHg 83%
    23:00 +17°C° 0 mm 4 m/s 758 mmHg 82%
    Voir plus